User: anonymous   Login
Location: Caltech
(34.1382°N, 118.1253°W)
Time: 14:29:04
(UTC-07:00)
Language:

Spot 4 Rocket - Orbit

View from above orbital plane
View from above orbital plane
View from above satellite
View from above satellite

Ground track
Ground track

The orbit data is extracted from the following two-line orbital elements,

1 25261U 98017B   16177.46633812  .00000081  00000-0  45069-4 0  9993
2 25261  98.5014 124.0989 0004587  72.3685 287.8000 14.33486274953906
Epoch (UTC): 25 June 2016 11:11:31
Eccentricity: 0.0004587
inclination: 98.5014°
perigee height: 777 km
apogee height: 783 km
right ascension of ascending node: 124.0989°
argument of perigee: 72.3685°
revolutions per day: 14.33486274
mean anomaly at epoch: 287.8000°
orbit number at epoch: 95390

The dashed part of the orbit path shows where the satellite is in the earth's shadow,  

DLR